SCP
0 0 0 0 0 0 0 0 0 0 0 0 0 0 0 0 0 0 0 0 0 0
0 0 0 0 0 0 0 0 0 0 0 0 0 0 0 0 0 0 0 0 0 0
0 0 0 0 0 0 0 0 0 0 0 0 0 0 0 0 0 0 0 0 0 0
0 0 0 0 0 0 0 0 0 0 0 0 0 0 0 0 0 0 0 0 0 0
0 0 0 0 0 0 0 0 0 0 0 0 0 0 0 0 0 0 0 0 0 0
0 0 0 0 0 0 0 0 0 0 0 0 0 0 0 0 0 0 0 0 0 0
0 0 0 0 0 0 0 0 0 0 0 0 0 0 0 0 0 0 0 0 0 0
0 0 0 0 0 0 0 0 0 0 0 0 0 0 0 0 0 0 0 0 0 0
0 0 0 0 0 0 0 0 0 0 0 0 0 0 0 0 0 0 0 0 0 0
0 0 0 0 0 0 0 0 0 0 0 0 0 0 0 0 0 0 0 0 0 0
0 0 0 0 0 0 0 0 0 0 0 0 0 0 0 0 0 0 0 0 0 0
0 0 0 0 0 0 0 0 0 0 0 0 0 0 0 0 0 0 0 0 0 0
0 0 0 0 0 0 0 0 0 0 0 0 0 0 0 0 0 0 0 0 0 0
0 0 0 0 0 0 0 0 0 0 0 0 0 0 0 0 0 0 0 0 0 0
Wind_Speed_500mb
26 20 25 16 27 29 27 24 25 24 20 17 16 18 20 21 24 33 32 37 38 32
25 25 21 16 16 18 19 16 19 18 17 15 16 18 21 18 26 32 30 31 28 29
14 26 29 27 15 19 20 17 15 14 14 15 16 20 22 21 20 30 22 21 24 25
30 26 25 23 23 21 16 13 10 8 7 10 14 21 25 25 17 19 20 22 24 26
33 32 27 21 18 13 10 10 9 6 6 9 16 22 22 19 18 21 23 24 26 29
32 26 21 16 12 10 9 8 6 7 11 16 22 22 21 20 21 24 23 25 29 36
22 17 12 9 7 8 7 6 8 12 15 17 18 17 17 20 23 26 26 29 33 35
14 12 10 6 4 7 10 11 14 16 16 17 16 23 31 31 31 31 32 33 33 28
8 2 4 8 11 12 12 13 13 14 12 11 15 35 39 41 39 33 32 33 30 31
6 4 4 5 6 5 7 8 5 6 8 12 25 39 38 41 35 31 30 30 31 34
10 9 8 7 6 8 8 4 5 6 9 14 31 42 37 36 32 26 25 27 30 31
9 9 9 10 11 10 8 7 7 10 13 16 24 43 41 38 26 20 23 23 18 21
12 11 12 13 14 13 11 9 8 12 15 23 25 40 35 34 26 21 22 15 16 28
14 15 15 16 15 15 14 14 14 10 9 23 31 30 30 29 24 24 23 22 22 20
Wind_Direction_500mb
120 123 340 208 185 200 198 198 198 204 213 229 247 269 285 301 301 298 301 305 308 302
247 291 251 232 175 178 189 197 202 215 232 253 277 290 299 295 306 307 312 309 309 305
116 150 211 239 222 214 204 207 222 236 256 272 288 300 310 312 304 311 310 304 296 300
145 168 191 193 192 195 201 214 230 256 285 301 308 316 320 317 313 306 309 309 307 306
139 156 172 180 186 189 200 211 234 259 301 312 314 317 316 314 314 319 316 311 313 311
142 153 165 178 189 184 194 218 248 308 317 320 315 317 318 325 322 319 315 313 309 312
139 154 167 174 171 185 211 265 306 310 316 316 316 318 316 318 320 322 313 310 309 312
134 139 145 162 212 275 295 301 308 314 311 312 325 282 308 311 316 317 314 313 314 310
105 108 295 296 293 303 313 307 311 303 311 311 291 298 309 311 306 308 309 313 315 311
104 62 9 357 358 344 318 299 296 318 313 317 302 301 311 315 315 311 305 311 307 314
67 57 44 36 12 0 4 348 320 292 309 322 299 308 319 324 323 312 305 304 310 318
71 68 48 34 29 29 12 356 341 319 326 322 308 310 325 325 328 311 311 310 319 329
71 59 42 36 28 18 13 345 347 343 344 325 321 326 336 338 338 329 334 342 358 332
60 48 41 32 28 10 1 349 344 344 339 334 337 341 338 334 333 333 351 352 350 340
Wind_Speed_850mb
26 20 25 16 27 29 27 24 25 24 20 17 16 18 20 21 24 33 32 37 38 32
25 25 21 16 16 18 19 16 19 18 17 15 16 18 21 18 26 32 30 31 28 29
14 26 29 27 15 19 20 17 15 14 14 15 16 20 22 21 20 30 22 21 24 25
30 26 25 23 23 21 16 13 10 8 7 10 14 21 25 25 17 19 20 22 24 26
33 32 27 21 18 13 10 10 9 6 6 9 16 22 22 19 18 21 23 24 26 29
32 26 21 16 12 10 9 8 6 7 11 16 22 22 21 20 21 24 23 25 29 36
22 17 12 9 7 8 7 6 8 12 15 17 18 17 17 20 23 26 26 29 33 35
14 12 10 6 4 7 10 11 14 16 16 17 16 23 31 31 31 31 32 33 33 28
8 2 4 8 11 12 12 13 13 14 12 11 15 35 39 41 39 33 32 33 30 31
6 4 4 5 6 5 7 8 5 6 8 12 25 39 38 41 35 31 30 30 31 34
10 9 8 7 6 8 8 4 5 6 9 14 31 42 37 36 32 26 25 27 30 31
9 9 9 10 11 10 8 7 7 10 13 16 24 43 41 38 26 20 23 23 18 21
12 11 12 13 14 13 11 9 8 12 15 23 25 40 35 34 26 21 22 15 16 28
14 15 15 16 15 15 14 14 14 10 9 23 31 30 30 29 24 24 23 22 22 20
Wind_Direction_850mb
120 123 340 208 185 200 198 198 198 204 213 229 247 269 285 301 301 298 301 305 308 302
247 291 251 232 175 178 189 197 202 215 232 253 277 290 299 295 306 307 312 309 309 305
116 150 211 239 222 214 204 207 222 236 256 272 288 300 310 312 304 311 310 304 296 300
145 168 191 193 192 195 201 214 230 256 285 301 308 316 320 317 313 306 309 309 307 306
139 156 172 180 186 189 200 211 234 259 301 312 314 317 316 314 314 319 316 311 313 311
142 153 165 178 189 184 194 218 248 308 317 320 315 317 318 325 322 319 315 313 309 312
139 154 167 174 171 185 211 265 306 310 316 316 316 318 316 318 320 322 313 310 309 312
134 139 145 162 212 275 295 301 308 314 311 312 325 282 308 311 316 317 314 313 314 310
105 108 295 296 293 303 313 307 311 303 311 311 291 298 309 311 306 308 309 313 315 311
104 62 9 357 358 344 318 299 296 318 313 317 302 301 311 315 315 311 305 311 307 314
67 57 44 36 12 0 4 348 320 292 309 322 299 308 319 324 323 312 305 304 310 318
71 68 48 34 29 29 12 356 341 319 326 322 308 310 325 325 328 311 311 310 319 329
71 59 42 36 28 18 13 345 347 343 344 325 321 326 336 338 338 329 334 342 358 332
60 48 41 32 28 10 1 349 344 344 339 334 337 341 338 334 333 333 351 352 350 340